Location: Ajisawe
(8.4333°N, 4.3833°E)
Time: 00:49:03
(UTC+00:00)

S-56A Canister/Altair - Pass Details

Date: 26 April 2021
Orbit: 631 x 2501 km, 38.9° (Epoch: 15 May)

Event Time Altitude Azimuth Distance (km) Brightness Sun altitude
Rises 17:48:40 0° 230° (SW) 6,161 12.7 0.0°
Reaches altitude 10° 17:52:42 10° 231° (SW) 5,162 12.3 -1.0°
Maximum altitude 18:07:52 84° 318° (NW) 2,244 10.0 -4.6°
Drops below altitude 10° 18:19:28 10° 47° (NE) 4,064 10.9 -7.4°
Sets 18:22:16 0° 48° (NE) 4,833 11.3 -8.1°
